Probability
0 0 0 0 0 0 0 0 0 0 0 0 0 0 0 0 0 0 0 0 0 0 0 0 3 3 3 3 3 3 3 3 3 3 0 0 0 0 0 3 0 0 0 0
0 0 0 0 0 0 0 0 0 0 0 0 0 0 0 0 0 0 0 0 0 0 0 0 3 3 3 3 3 3 6 3 3 3 0 0 0 0 0 3 0 0 0 0
0 0 0 0 0 0 0 0 0 0 0 0 0 0 0 0 0 0 0 0 0 0 0 0 0 3 3 3 0 3 3 3 0 0 0 0 0 0 0 0 3 0 0 0
0 0 0 0 0 0 0 0 0 0 0 0 0 0 0 0 0 0 0 0 0 0 0 0 0 3 3 3 0 0 0 0 0 0 0 0 0 0 0 0 0 0 0 0
0 0 0 0 0 0 0 0 0 0 0 0 0 0 0 0 0 0 0 0 0 0 0 0 0 0 3 3 0 0 0 0 0 0 0 0 0 0 0 0 0 0 0 0
0 0 0 0 0 0 0 0 0 0 0 0 0 0 0 0 0 0 0 0 0 0 0 0 0 0 0 0 0 0 0 0 0 0 0 0 0 0 0 0 0 0 0 0
0 0 0 0 0 0 0 0 0 0 0 0 0 0 0 0 0 0 0 0 0 0 0 0 0 0 0 0 0 0 0 0 0 0 0 0 0 0 0 0 0 0 0 0
0 0 0 0 0 0 0 0 0 0 0 0 0 0 0 0 0 0 0 0 0 0 0 0 0 0 0 0 0 0 0 0 0 0 0 0 0 0 0 0 0 0 0 0
0 0 0 0 0 0 0 0 0 0 0 0 0 0 0 0 0 0 0 0 0 0 0 0 0 0 0 0 0 0 0 0 0 0 0 0 0 0 0 0 0 0 0 0
0 0 0 0 0 0 0 0 0 0 0 0 0 0 0 0 0 0 0 0 0 0 0 0 0 0 0 0 0 0 0 0 0 0 0 0 0 0 0 0 0 0 0 0
0 0 0 0 0 0 0 0 0 0 0 0 0 0 0 0 0 0 0 0 0 0 0 0 0 0 0 0 0 0 0 0 0 0 0 0 0 0 0 0 0 0 0 0
0 0 0 0 0 0 0 0 0 0 0 0 0 0 0 0 0 0 0 0 0 0 0 0 0 0 0 0 0 0 0 0 0 0 0 0 0 0 0 0 0 0 0 0
0 0 0 0 0 0 0 0 0 0 0 0 0 0 0 0 0 0 0 0 0 0 0 0 0 0 0 0 0 0 0 0 0 0 0 0 0 0 0 0 0 0 0 0
0 0 0 0 0 0 0 0 0 0 0 0 0 0 0 0 0 0 0 0 0 0 0 0 0 0 0 0 0 0 0 0 0 0 0 0 0 0 0 0 0 0 0 0
0 0 0 0 0 0 0 0 0 0 0 0 0 0 0 0 0 0 0 0 0 0 0 0 0 0 0 0 0 0 0 0 0 0 0 0 0 0 0 0 0 0 0 0
0 0 0 0 0 0 0 0 0 0 0 0 0 0 0 0 0 0 0 0 0 0 0 0 0 0 0 0 0 0 0 0 0 0 0 0 0 0 0 0 0 0 0 0
0 0 0 0 0 0 0 0 0 0 0 0 0 0 0 0 0 0 0 0 0 0 0 0 0 0 0 0 0 0 0 0 0 0 0 0 0 0 0 0 0 0 0 0
0 0 0 0 0 0 0 0 0 0 0 0 0 0 0 0 0 0 0 0 0 0 0 0 0 0 0 0 0 0 0 0 0 0 0 0 0 0 0 0 0 0 0 0
0 0 0 0 0 0 0 0 0 0 0 0 0 0 0 0 0 0 0 0 0 0 0 0 0 0 0 0 0 0 0 0 0 0 0 0 0 0 0 0 0 0 0 0
0 0 0 0 0 0 0 0 0 0 0 0 0 0 0 0 0 0 0 0 0 0 0 0 0 0 0 0 0 0 0 0 0 0 0 0 0 0 0 0 0 0 0 0
0 0 0 0 0 0 0 0 0 0 0 0 0 0 0 0 0 0 0 0 0 0 0 0 0 0 0 0 0 0 0 0 0 0 0 0 0 0 0 0 0 0 0 0
0 0 0 0 0 0 0 0 0 0 0 0 0 0 0 0 0 0 0 0 0 0 0 0 0 0 0 0 0 0 0 0 0 0 0 0 0 0 0 0 0 0 0 0
0 0 0 0 0 0 0 0 0 0 0 0 0 0 0 0 0 0 0 0 0 0 0 0 0 0 0 0 0 0 0 0 0 0 0 0 0 0 0 0 0 0 0 0
0 0 0 0 0 0 0 0 0 0 0 0 0 0 0 0 0 0 0 0 0 0 0 0 0 0 0 0 0 0 0 0 0 0 0 0 0 0 0 0 0 0 0 0
0 0 0 0 0 0 0 0 0 0 0 0 0 0 0 0 0 0 0 0 0 0 0 0 0 0 0 0 0 0 0 0 0 0 0 0 0 0 0 0 0 0 0 0
0 0 0 0 0 0 0 0 0 0 0 0 0 0 0 0 0 0 0 0 0 0 0 0 0 0 0 0 0 0 0 0 0 0 0 0 0 0 0 0 0 0 0 0
Height
5610 5612 5615 5620 5623 5629 5632 5635 5640 5645 5648 5651 5656 5663 5669 5673 5679 5684 5689 5694 5699 5704 5708 5711 5715 5719 5723 5726 5729 5733 5736 5740 5743 5746 5749 5752 5755 5758 5762 5764 5767 5770 5774 5777
5595 5598 5604 5606 5609 5613 5617 5621 5627 5632 5635 5639 5644 5650 5656 5661 5667 5673 5678 5683 5689 5693 5697 5702 5706 5710 5714 5717 5721 5724 5727 5731 5734 5737 5741 5744 5747 5750 5753 5756 5759 5762 5766 5769
5581 5587 5590 5592 5595 5599 5604 5610 5615 5619 5623 5626 5632 5637 5645 5651 5656 5662 5667 5673 5678 5683 5688 5692 5697 5701 5705 5709 5712 5715 5719 5722 5725 5729 5732 5735 5738 5741 5745 5748 5751 5754 5758 5762
5568 5574 5576 5579 5583 5587 5592 5599 5603 5607 5610 5614 5620 5625 5634 5639 5645 5651 5657 5663 5668 5673 5678 5682 5687 5692 5696 5700 5703 5706 5709 5713 5717 5720 5723 5727 5731 5733 5737 5740 5743 5747 5750 5754
5556 5561 5564 5567 5572 5576 5581 5587 5591 5595 5598 5603 5609 5614 5623 5628 5634 5640 5647 5653 5658 5663 5668 5672 5677 5682 5686 5690 5694 5697 5701 5704 5708 5712 5715 5718 5722 5725 5728 5732 5735 5739 5742 5746
5547 5550 5552 5557 5562 5566 5571 5576 5580 5584 5587 5591 5600 5604 5610 5617 5624 5631 5637 5642 5647 5652 5658 5663 5667 5672 5677 5681 5685 5688 5692 5696 5700 5703 5706 5710 5713 5717 5720 5724 5727 5731 5735 5738
5537 5539 5543 5547 5551 5556 5560 5565 5570 5572 5576 5582 5592 5594 5600 5609 5615 5620 5626 5632 5637 5642 5648 5653 5658 5663 5668 5672 5676 5680 5684 5687 5691 5695 5698 5701 5705 5709 5713 5716 5719 5723 5727 5731
5528 5531 5534 5537 5541 5546 5550 5556 5561 5565 5569 5576 5581 5584 5592 5599 5604 5609 5616 5622 5627 5633 5638 5644 5648 5653 5658 5663 5667 5671 5675 5679 5682 5686 5690 5693 5696 5700 5704 5707 5711 5715 5719 5722
5519 5522 5526 5529 5533 5538 5542 5546 5553 5558 5561 5567 5572 5577 5583 5589 5595 5600 5607 5613 5618 5623 5629 5634 5639 5644 5649 5653 5658 5662 5666 5670 5674 5678 5681 5685 5688 5692 5696 5699 5702 5706 5710 5713
5512 5514 5518 5521 5525 5529 5534 5539 5544 5548 5553 5558 5564 5569 5574 5579 5585 5591 5597 5603 5608 5613 5619 5624 5629 5634 5639 5644 5648 5653 5657 5662 5666 5669 5673 5676 5680 5684 5688 5691 5694 5697 5701 5704
5506 5508 5511 5514 5517 5521 5526 5531 5535 5541 5546 5552 5556 5563 5566 5570 5576 5581 5587 5593 5599 5604 5609 5615 5620 5624 5629 5634 5639 5644 5648 5653 5657 5661 5664 5668 5672 5676 5679 5682 5686 5689 5692 5696
5500 5502 5504 5508 5511 5515 5519 5524 5528 5534 5538 5544 5549 5555 5558 5562 5567 5572 5578 5584 5589 5595 5600 5605 5610 5614 5619 5624 5629 5634 5639 5644 5648 5652 5655 5659 5663 5667 5670 5674 5677 5681 5684 5687
5495 5497 5499 5502 5507 5509 5512 5517 5521 5527 5532 5537 5542 5549 5550 5554 5558 5563 5569 5574 5580 5585 5590 5595 5600 5605 5610 5615 5619 5624 5629 5634 5638 5642 5646 5650 5654 5658 5662 5665 5668 5672 5675 5678
5490 5492 5494 5497 5499 5502 5506 5511 5515 5520 5524 5529 5534 5540 5543 5546 5551 5555 5560 5565 5571 5576 5580 5585 5590 5595 5600 5605 5609 5614 5619 5623 5628 5632 5637 5641 5645 5648 5652 5655 5659 5662 5665 5668
5486 5487 5489 5491 5494 5497 5500 5505 5509 5513 5518 5523 5527 5531 5536 5539 5544 5548 5552 5556 5561 5566 5571 5576 5581 5586 5591 5595 5600 5604 5609 5613 5618 5622 5627 5631 5635 5639 5642 5646 5649 5652 5655 5658
5482 5483 5485 5487 5490 5492 5495 5499 5504 5508 5512 5516 5520 5525 5528 5531 5535 5540 5543 5547 5552 5557 5562 5567 5571 5576 5581 5585 5590 5595 5599 5603 5608 5612 5617 5621 5625 5629 5633 5636 5639 5643 5646 5648
5478 5479 5481 5483 5485 5487 5490 5495 5498 5502 5506 5511 5514 5518 5521 5525 5528 5531 5535 5539 5543 5548 5553 5558 5562 5566 5571 5576 5580 5585 5589 5593 5598 5602 5606 5611 5615 5619 5622 5626 5629 5633 5635 5638
5475 5476 5477 5479 5481 5483 5489 5490 5493 5496 5499 5503 5507 5511 5514 5518 5521 5524 5527 5531 5535 5540 5544 5548 5553 5557 5561 5566 5570 5575 5579 5583 5588 5592 5596 5600 5604 5608 5612 5615 5618 5621 5624 5627
5471 5472 5473 5475 5476 5478 5483 5485 5488 5491 5494 5497 5500 5504 5507 5511 5514 5517 5520 5524 5527 5531 5535 5539 5544 5548 5552 5556 5560 5565 5569 5573 5577 5581 5586 5589 5593 5597 5601 5604 5607 5610 5613 5616
5468 5469 5470 5471 5472 5475 5479 5480 5482 5486 5488 5491 5494 5497 5500 5504 5507 5511 5513 5516 5519 5523 5527 5531 5535 5539 5543 5547 5551 5555 5559 5563 5567 5571 5575 5579 5582 5586 5589 5593 5596 5599 5602 5605
5466 5466 5466 5467 5468 5470 5473 5475 5478 5482 5483 5485 5488 5490 5493 5496 5500 5503 5506 5509 5512 5515 5519 5522 5526 5530 5534 5538 5541 5545 5549 5553 5557 5561 5564 5568 5572 5575 5579 5582 5585 5588 5591 5594
5462 5462 5463 5464 5465 5469 5469 5471 5473 5475 5477 5479 5482 5484 5487 5490 5493 5496 5499 5502 5504 5507 5510 5514 5518 5522 5525 5529 5533 5536 5540 5544 5548 5551 5554 5558 5561 5565 5568 5571 5574 5577 5580 5582
5459 5460 5459 5461 5463 5463 5464 5465 5467 5469 5471 5474 5476 5479 5481 5484 5486 5489 5492 5495 5498 5500 5503 5506 5510 5514 5517 5520 5524 5527 5531 5534 5537 5541 5544 5547 5551 5554 5557 5560 5563 5566 5568 5571
5456 5456 5456 5457 5458 5459 5460 5461 5463 5464 5467 5469 5471 5473 5475 5478 5480 5483 5486 5489 5491 5494 5496 5499 5503 5506 5509 5512 5515 5518 5521 5524 5528 5531 5534 5537 5540 5543 5546 5549 5552 5554 5557 5560
5453 5453 5453 5453 5455 5455 5456 5457 5459 5460 5462 5463 5465 5467 5469 5472 5474 5477 5480 5482 5485 5487 5490 5493 5496 5498 5501 5504 5507 5510 5513 5516 5519 5522 5524 5527 5530 5533 5536 5538 5541 5544 5546 5549
5449 5449 5450 5450 5451 5452 5453 5453 5455 5456 5457 5459 5460 5462 5464 5466 5468 5471 5473 5476 5478 5481 5483 5486 5488 5491 5494 5496 5499 5501 5504 5507 5510 5513 5515 5518 5521 5523 5526 5528 5531 5533 5536 5538
Wind_Speed
47 48 49 48 49 50 50 51 51 51 52 52 51 50 48 49 49 48 47 46 46 45 45 44 43 42 41 41 41 40 41 41 40 40 38 37 37 38 38 38 38 37 37 36
46 47 47 47 48 50 51 51 51 51 52 52 51 51 49 49 48 48 48 47 46 46 45 44 43 43 42 41 40 40 40 41 40 40 39 38 38 38 38 38 38 38 37 36
44 44 44 46 48 50 50 50 49 50 51 52 51 51 50 49 48 47 48 47 46 46 45 44 44 43 42 42 41 40 40 40 40 39 39 39 39 38 38 38 38 38 37 37
42 41 43 44 45 47 48 47 47 47 49 51 51 52 49 49 48 48 47 46 46 45 45 45 44 43 42 42 41 41 40 40 40 39 39 39 39 38 37 38 38 39 38 37
39 40 41 42 43 45 46 45 46 46 47 49 49 51 49 48 48 48 47 45 45 45 45 45 44 44 43 42 41 41 40 40 39 39 39 39 39 39 38 38 39 39 39 39
36 38 40 40 40 42 43 44 44 45 45 48 46 48 48 45 45 45 45 45 45 44 44 44 44 44 43 42 41 41 40 40 40 40 39 39 39 39 38 38 39 39 39 39
32 34 36 37 37 39 40 41 42 43 45 45 43 46 46 43 42 43 43 44 44 44 44 44 44 44 43 42 41 40 40 40 39 39 38 38 39 39 39 38 39 39 39 39
29 31 33 34 34 36 38 39 40 41 42 41 40 43 43 41 42 43 43 43 43 43 43 43 43 44 43 42 42 41 40 40 39 39 38 38 39 39 39 38 39 40 40 40
26 29 32 34 33 35 37 38 38 38 40 40 40 42 42 42 42 43 42 42 42 43 42 42 43 43 43 42 41 40 40 39 38 38 38 38 38 39 39 38 39 40 40 41
25 27 29 32 32 33 35 36 36 38 39 38 38 39 41 42 42 43 43 42 41 42 41 41 42 42 43 43 42 41 40 40 39 38 38 38 39 40 40 38 38 39 39 40
23 25 25 28 31 31 32 34 35 36 37 37 36 38 39 40 41 42 42 42 42 42 41 41 41 41 42 43 42 41 41 40 40 40 39 39 40 40 40 39 39 39 39 40
20 22 23 25 27 29 30 32 34 34 34 35 35 36 38 39 41 41 42 42 42 42 42 42 41 41 41 42 42 42 42 41 40 40 40 40 40 40 40 40 39 39 40 40
17 19 20 23 25 27 28 30 31 32 32 34 35 34 34 37 39 40 41 41 41 42 42 42 42 41 41 41 42 42 42 42 41 41 41 41 40 40 40 40 40 40 40 40
16 17 19 21 23 26 27 29 30 30 30 30 33 34 34 35 37 39 39 40 40 41 41 42 42 42 41 41 41 41 42 42 42 41 41 41 41 40 40 40 40 41 41 41
16 16 17 19 22 24 26 28 29 30 30 29 29 31 33 35 37 39 39 40 40 40 41 41 42 42 42 41 41 41 41 41 42 42 42 41 41 41 41 41 41 41 41 42
17 17 18 19 20 23 25 26 27 28 29 30 29 29 30 33 35 37 39 40 40 40 40 41 41 41 42 41 41 41 42 42 42 42 42 42 42 42 41 41 41 41 42 42
17 16 16 17 19 21 23 24 26 27 27 29 30 30 30 30 32 34 35 37 38 39 40 40 40 40 40 41 41 42 42 43 43 43 42 43 43 42 42 42 42 42 42 43
16 15 15 16 17 21 21 22 24 26 27 28 29 29 29 30 31 32 32 34 35 37 38 39 39 39 39 39 41 42 42 42 43 43 43 43 43 43 43 42 43 43 44 44
15 16 16 16 18 19 19 21 22 24 26 27 28 29 29 30 30 31 32 33 34 34 35 37 37 38 38 39 40 41 42 42 42 42 42 43 43 43 43 43 43 43 43 43
14 15 16 17 18 19 19 18 21 23 25 25 26 27 28 29 30 31 31 32 33 33 33 34 35 37 38 38 39 40 41 41 41 41 41 41 42 43 43 43 43 43 43 42
13 13 14 16 17 18 19 19 19 22 24 24 25 26 27 28 29 29 30 31 31 31 32 33 34 34 36 36 37 38 39 40 40 40 40 40 41 41 41 41 42 42 42 42
12 13 13 14 15 16 17 18 20 21 22 23 24 26 27 27 28 28 27 27 27 28 29 31 32 33 34 35 35 36 37 38 38 38 39 40 40 40 40 40 41 41 41 42
11 12 12 13 14 15 17 19 20 20 21 22 23 24 26 26 27 27 27 26 26 26 27 29 30 32 33 33 33 34 34 35 36 36 37 37 38 38 39 39 40 40 41 41
10 11 12 13 14 15 16 17 18 19 21 21 22 23 24 24 25 26 27 27 26 26 26 27 28 30 31 32 33 33 33 34 35 36 36 36 37 37 38 38 38 39 39 40
11 11 13 13 14 15 16 16 17 18 20 21 21 22 23 24 24 25 26 26 26 26 27 27 28 29 30 31 32 33 33 33 34 34 35 36 36 36 37 37 37 38 38 39
10 11 12 13 14 15 16 17 16 17 18 20 20 20 21 22 23 24 24 25 26 26 26 26 26 28 29 29 30 31 32 33 33 34 35 35 36 36 37 37 37 37 38 39
Wind_Direction
258 255 252 251 249 249 248 248 248 247 248 247 245 244 243 243 242 242 242 242 243 244 244 245 245 245 245 245 245 245 245 244 245 245 245 244 245 245 245 247 247 246 246 245
256 253 251 249 247 245 244 245 246 246 246 247 245 244 242 242 242 241 241 242 242 242 243 243 244 244 245 244 245 245 244 244 244 244 243 245 245 244 244 244 245 245 244 244
256 254 250 248 246 244 243 245 246 247 246 246 245 243 242 242 242 242 242 242 241 241 242 242 242 243 244 244 245 245 244 243 243 243 243 243 243 245 244 243 244 244 243 243
256 252 248 246 246 245 244 243 245 245 245 245 244 244 241 242 242 242 242 241 241 240 241 241 242 242 243 244 244 244 243 242 243 242 243 244 245 245 244 243 243 243 243 243
256 250 247 246 245 244 244 242 242 243 244 245 243 245 242 242 242 241 241 241 240 239 239 240 241 241 242 243 243 243 243 242 242 242 244 244 244 243 244 243 242 242 242 242
255 249 246 246 244 243 243 241 241 241 242 243 242 244 243 242 242 242 241 240 239 238 237 238 239 240 240 241 242 242 243 242 242 242 243 243 243 243 244 244 243 242 242 242
253 248 246 245 243 240 239 239 239 240 240 243 241 242 242 241 241 241 240 239 238 237 237 237 238 239 239 240 241 241 241 241 241 241 241 241 242 243 244 245 244 242 242 244
256 249 244 243 241 239 236 236 237 239 241 242 240 240 239 239 239 240 239 238 238 237 237 238 238 238 239 239 240 241 241 240 240 240 240 241 242 243 242 244 244 243 243 245
256 250 247 244 241 239 236 234 235 237 238 239 241 240 238 238 238 240 239 237 238 238 237 237 238 238 237 238 240 241 241 240 240 240 240 240 241 241 241 243 243 244 245 246
259 253 249 245 242 239 236 233 232 232 234 236 238 238 237 237 237 238 238 237 237 238 238 237 238 238 237 237 239 240 240 240 240 241 241 241 241 241 243 244 244 245 246 246
257 251 249 245 240 238 235 232 231 232 233 234 234 234 236 239 239 240 239 238 236 237 237 237 238 238 237 238 238 239 239 241 242 242 242 241 242 243 244 244 244 244 245 245
257 250 247 242 238 237 234 231 231 232 232 232 234 234 235 237 239 239 239 238 237 237 237 238 238 238 238 238 238 238 239 241 241 241 242 242 241 242 244 244 245 245 246 244
260 250 245 239 235 234 234 230 231 232 232 231 232 235 237 237 237 238 238 238 237 237 237 237 238 239 238 238 239 239 240 240 240 240 240 240 241 242 243 244 245 246 246 246
257 249 245 242 236 231 230 229 229 231 232 233 234 235 235 236 237 238 237 237 237 237 236 237 238 239 239 239 239 239 239 240 239 239 239 239 240 241 242 244 245 245 247 247
256 250 244 242 236 232 231 231 230 231 232 233 233 235 236 237 238 239 240 239 238 237 236 237 238 238 239 239 239 239 239 240 240 239 239 239 240 242 243 244 246 246 248 248
257 253 247 244 239 236 233 232 232 231 231 232 233 234 236 239 240 241 241 240 239 237 237 237 238 239 239 239 238 239 239 240 240 240 240 241 241 242 244 245 246 247 249 249
257 253 247 242 239 239 237 234 235 234 231 232 234 234 234 238 240 241 241 240 240 238 238 239 239 239 239 238 238 238 239 239 240 240 240 241 241 243 245 246 246 247 248 249
260 250 247 242 241 241 240 238 236 235 232 232 234 235 236 236 238 241 241 240 240 239 238 238 239 238 238 238 238 239 239 240 240 240 241 241 242 244 246 247 248 248 249 250
264 254 251 247 248 245 243 240 236 235 234 232 231 233 234 235 237 239 239 239 238 238 238 238 238 238 239 239 238 239 240 240 241 241 242 243 244 245 246 247 248 249 250 251
268 258 253 250 250 248 245 242 237 235 235 232 231 232 234 235 236 237 238 238 238 239 239 239 239 239 240 240 240 240 241 242 242 242 243 243 244 246 247 248 249 249 249 251
269 261 254 252 252 250 246 244 237 234 234 235 235 235 236 235 236 237 237 239 240 241 241 240 239 238 239 240 240 241 242 243 243 244 244 245 245 246 246 248 248 249 250 251
271 262 254 250 250 248 244 243 240 238 236 237 238 239 238 238 238 238 237 238 239 240 240 240 239 239 239 240 240 240 241 242 243 244 245 246 246 246 247 247 248 250 252 252
270 262 256 250 247 246 245 245 243 242 241 240 239 239 239 238 239 237 235 236 238 240 239 239 239 239 240 241 242 241 240 241 243 244 245 246 247 247 248 248 250 251 251 252
271 261 253 248 242 244 245 245 245 245 246 244 241 240 240 240 239 237 235 235 237 239 239 238 240 240 240 240 242 243 244 244 244 245 246 246 247 248 249 249 250 250 251 252
271 264 256 251 247 246 247 249 248 249 248 246 245 244 243 244 243 241 239 239 239 240 240 241 242 242 241 241 241 243 244 244 245 246 246 247 248 249 249 250 250 250 251 252
273 266 260 255 251 249 245 247 249 247 246 247 247 246 245 244 244 244 243 243 242 241 241 242 242 242 242 243 243 243 243 245 246 246 247 248 249 250 251 251 252 252 253 253